This is the latest recevied weather packets stored in our database for station/object WX1N. If no packets are shown the sender has not sent any weather packets the latest 10 day(s).
| Time | Temp. | Humidity | Pressure | Rain* | Wind** | Luminosity | Snow |
|---|---|---|---|---|---|---|---|
| 1777503604 | 16.11° C | 54% | 1008.8 hPa | 0 mm | - | - | - |
| 1777503303 | 16.11° C | 54% | 1008.8 hPa | 0 mm | - | - | - |
| 1777503004 | 16.11° C | 55% | 1008.9 hPa | 0 mm | - | - | - |
| 1777502703 | 16.11° C | 53% | 1008.8 hPa | 0 mm | - | - | - |
| 1777502403 | 16.11° C | 55% | 1008.9 hPa | 0 mm | - | - | - |
| 1777502104 | 16.67° C | 52% | 1008.8 hPa | 0 mm | - | - | - |
| 1777501803 | 16.67° C | 53% | 1008.8 hPa | 0 mm | - | - | - |
| 1777501504 | 16.67° C | 53% | 1008.9 hPa | 0 mm | - | - | - |
| 1777501203 | 16.67° C | 53% | 1009 hPa | 0 mm | - | - | - |
| 1777500904 | 17.22° C | 53% | 1009.1 hPa | 0 mm | - | - | - |
| 1777500603 | 17.22° C | 52% | 1009.1 hPa | 0 mm | - | - | - |
| 1777500304 | 17.22° C | 51% | 1009.2 hPa | 0 mm | - | - | - |
| 1777500004 | 17.78° C | 51% | 1009.2 hPa | 0 mm | - | - | - |
| 1777499703 | 17.78° C | 53% | 1009.4 hPa | 0 mm | - | - | - |
| 1777499404 | 17.78° C | 52% | 1009.4 hPa | 0 mm | - | - | - |
| 1777499104 | 17.78° C | 56% | 1009.2 hPa | 0 mm | - | - | - |
| 1777498803 | 17.78° C | 53% | 1009.4 hPa | 0 mm | - | - | - |
| 1777498504 | 17.78° C | 53% | 1009.3 hPa | 0 mm | - | - | - |
| 1777498203 | 18.33° C | 51% | 1009.3 hPa | 0 mm | - | - | - |
| 1777497904 | 18.33° C | 51% | 1009.3 hPa | 0 mm | - | - | - |
| 1777497604 | 18.33° C | 52% | 1009.2 hPa | 0 mm | - | - | - |
| 1777497303 | 18.33° C | 52% | 1009.2 hPa | 0 mm | - | - | - |
| 1777497004 | 18.33° C | 53% | 1009.2 hPa | 0 mm | - | - | - |
| 1777496703 | 18.33° C | 50% | 1009.3 hPa | 0 mm | - | - | - |
| 1777496404 | 18.33° C | 52% | 1009.3 hPa | 0 mm | - | - | - |
* Rain latest hour (hover to see other rain measurements)
** Current wind speed in m/s (hover to see current wind gust speed)